Location: Malcolm X Square
(37.7810°N, 122.4297°W)
Time: 00:02:46
(UTC+00:00)

Cosmos 1975 - Pass Details

Date: 13 April 2024
Orbit: 514 x 533 km, 82.5° (Epoch: 21 May)

Event Time Altitude Azimuth Distance (km) Brightness Sun altitude
Rises 12:43:06 0° 339° (NNW) 2,642 6.3 -10.9°
Reaches altitude 10° 12:45:29 10° 326° (NW) 1,752 5.3 -10.5°
Maximum altitude 12:48:41 25° 270° (W) 1,066 3.7 -9.9°
Drops below altitude 10° 12:51:52 10° 213° (SSW) 1,750 4.9 -9.3°
Enters shadow 12:54:04 - 201° (SSW) 2,567 5.8 -8.9°
